User: anonymous   Login
Location: Nied?wied?
(53.3665°N, 14.8184°E)
Time: 17:36:58
(UTC+00:00)
Language:

ISS - Orbit

View from above orbital plane
View from above orbital plane
View from above satellite
View from above satellite

Ground track
Ground track

The orbit data is extracted from the following two-line orbital elements,

1 25544U 98067A   21165.45671404  .00001424  00000-0  34023-4 0  9993
2 25544  51.6444 356.2304 0003511  92.6904 358.4326 15.48984926288172
Epoch (UTC): 14 June 2021 10:57:40
Eccentricity: 0.0003511
inclination: 51.6444°
perigee height: 417 km
apogee height: 422 km
right ascension of ascending node: 356.2304°
argument of perigee: 92.6904°
revolutions per day: 15.48984926
mean anomaly at epoch: 358.4326°
orbit number at epoch: 28817

The dashed part of the orbit path shows where the satellite is in the earth's shadow,  

DLR